sat.trackr.live / text

‹ back to catalog

STARLINK-11715 [DTC]

NORAD 64076 · 2025-107N

PAYLOAD ACTIVE UNKNOWN

§ Identity

Operator
Country
US
Launch date
2025-05-21
Launch site
AFETR
Launch vehicle
Mass (kg)
RCS (m²)

Purposes: comms

External: N2YO · Heavens-Above · Gunter

§ Orbital elements

Epoch: 2026-05-25T00:14:46.328352Z

Period
91.67 min
Inclination
43.0011°
Eccentricity
0.0001859
Mean motion
15.70859790 rev/d
Perigee alt
355.2 km
Apogee alt
357.7 km
Semi-major
6,734.6 km
B*
9.4850e-4
RAAN
357.9845°
Arg perigee
274.0327°
Mean anomaly
86.0328°
Rev number
5,930

§ Raw data

STARLINK-11715 [DTC]1 64076U 25107N   26145.01025843  .00123181  00000+0  94850-3 0  99932 64076  43.0011 357.9845 0001859 274.0327  86.0328 15.70859790 59308

JSON: /api/v1/satellites/64076 · /tle

For live sub-satellite position, see the globe view (requires WebGL).

§ Visibility from observer

Set your observer location to see the next 7 days of passes ≥ 10°. The values pass through the URL so the page stays shareable.

No JS? Fill the form by hand. The geolocation button needs JavaScript.